Regional Weather Roundup
Issued by NWS

Home | Current Version | Previous Version | Graphics & Text | Print | Product List | Glossary On
Versions: 1 2 3 4 5 6 7 8 9 10 11 12 13 14 15 16 17 18 19 20 21 22 23 24 25 26 27 28 29 30 31 32 33 34 35 36 37 38 39 40 41 42 43 44 45 46 47 48 49 50
000
ASUS45 KCYS 300010
RWRWY

WYOMING REGIONAL WEATHER ROUNDUP
NATIONAL WEATHER SERVICE CHEYENNE WY
600 PM MDT WED JUL 29 2015

NOTE:  "FAIR" INDICATES FEW OR NO CLOUDS BELOW 12,000 FEET
WITH NO SIGNIFICANT WEATHER AND/OR OBSTRUCTIONS TO VISIBILITY.

WYZ001-300100-
YELLOWSTONE NATIONAL PARK

CITY           SKY/WX    TMP DP  RH WIND       PRES   REMARKS
LK YELLOWSTONE   N/A     68  26  20 MISG      30.46S
6HR MIN TEMP:  56; 6HR MAX TEMP:  69;

W YELLOWSTONE  NOT AVBL

$$
WYZ002>013-054>058-071-098>099-300100-
NORTHERN WYOMING

CITY           SKY/WX    TMP DP  RH WIND       PRES   REMARKS
JACKSON        FAIR      73  34  23 S5        30.37S
CODY           FAIR      79  34  19 SE5       30.24S
GREYBULL       FAIR      83  28  13 SE7       30.18F
6HR MIN TEMP:  74; 6HR MAX TEMP:  84;

WORLAND        FAIR      82  27  13 N8        30.19F
6HR MIN TEMP:  73; 6HR MAX TEMP:  83;

SHERIDAN       FAIR      82  35  18 CALM      30.20F
6HR MIN TEMP:  76; 6HR MAX TEMP:  83;

BUFFALO        FAIR      79  35  20 N8        30.25S
6HR MIN TEMP:  72; 6HR MAX TEMP:  81;

GILLETTE       FAIR      80  32  17 VRB3      30.21F
6HR MIN TEMP:  73; 6HR MAX TEMP:  81;

HULETT         FAIR      77  34  20 NW6       30.23F
NEWCASTLE      FAIR      79  28  15 NW3       30.22F

$$
WYZ014>020-022>026-101>103-300100-
CENTRAL WYOMING

CITY           SKY/WX    TMP DP  RH WIND       PRES   REMARKS
BIG PINEY      FAIR      76  23  14 VRB6      30.38F
6HR MIN TEMP:  65; 6HR MAX TEMP:  76;

PINEDALE       FAIR      73  27  17 NW3       30.39F
DUBOIS         FAIR      72  19  14 NW12G23   30.37S
LANDER         FAIR      82  28  14 N3        30.23F
6HR MIN TEMP:  70; 6HR MAX TEMP:  83;

RIVERTON       FAIR      80  23  12 VRB7      30.25F
6HR MIN TEMP:  68; 6HR MAX TEMP:  81;

CASPER         FAIR      83  21  10 NW7       30.25F
6HR MIN TEMP:  71; 6HR MAX TEMP:  83;

DOUGLAS        FAIR      83  30  14 VRB3      30.24F
6HR MIN TEMP:  74; 6HR MAX TEMP:  84;


$$
WYZ021-027>030-104>119-300100-
SOUTHERN WYOMING

CITY           SKY/WX    TMP DP  RH WIND       PRES   REMARKS
EVANSTON       FAIR      78  11   8 W15G24    30.39F
6HR MIN TEMP:  67; 6HR MAX TEMP:  80;

KEMMERER       FAIR      77  16  10 W3G20     30.40F
FORT BRIDGER   CLEAR     81  12   7 NW12      30.40F
ROCK SPRINGS   FAIR      77  10   7 W14       30.35F
6HR MIN TEMP:  66; 6HR MAX TEMP:  78;

DIXON          FAIR      83  14   7 SW6       30.35F
RAWLINS        FAIR      79  14   8 W9G20     30.35F
6HR MIN TEMP:  70; 6HR MAX TEMP:  81;

SARATOGA       FAIR      79  18  10 NW9       30.36F
LARAMIE        FAIR      77  26  15 NE7       30.37S
6HR MIN TEMP:  71; 6HR MAX TEMP:  79;

CHEYENNE       FAIR      78  48  34 SE14      30.30S
6HR MIN TEMP:  73; 6HR MAX TEMP:  82;

TORRINGTON     FAIR      84  44  24 SE5       30.18F
6HR MIN TEMP:  73; 6HR MAX TEMP:  86;

PINE BLUFFS    FAIR      81  46  30 S14       30.25F

$$


USA.gov is the U.S. government's official web portal to all federal, state and local government web resources and services.